Muncie, IN

6:14 AM EDT on September 26, 2017 (GMT -0400)
Delaware County-Johnson

Weather History for KMIE - April, 2011

Change the Weather History Date:

Thursday, April 21, 2011

  Actual Average Record
Temperature  
Mean Temperature 44 °F 54 °F  
Max Temperature 55 °F 64 °F 86 °F (1976)
Min Temperature 32 °F 43 °F 29 °F (1981)
Degree Days  
Heating Degree Days 21 12  
Month to date heating degree days 301 328  
Since 1 July heating degree days 5606 5498  
Cooling Degree Days 0 1  
Month to date cooling degree days 5 4  
Year to date cooling degree days 5 5  
Moisture  
Dew Point 34 °F    
Average Humidity 68    
Maximum Humidity 89    
Minimum Humidity 46    
Precipitation  
Precipitation 0.00 in 0.12 in 1.15 in (1986)
Month to date precipitation 4.41 2.57  
Year to date precipitation 13.29 10.06  
Sea Level Pressure  
Sea Level Pressure 30.30 in    
Wind  
Wind Speed 8 mph (ENE)    
Max Wind Speed 20 mph    
Max Gust Speed 25 mph    
Visibility 10 miles    
Events      
T = Trace of Precipitation, MM = Missing Value Source: NWS Daily Summary

Daily Weather History Graph

Daily Weather History Graph

Search for Another Location

Airport or City:

Trip Planner

Search our weather history database for the weather conditions in past years. The results will help you decide how hot, cold, wet, or windy it might be!

Date:

Astronomy

Apr. 21, 2011 Rise Set
Actual Time 6:55 AM EDT 8:26 PM EDT
Civil Twilight 6:26 AM EDT 8:54 PM EDT
Nautical Twilight 5:52 AM EDT 9:29 PM EDT
Astronomical Twilight 5:15 AM EDT 10:06 PM EDT
Moon No Moon Rise 9:24 AM EDT (4/21)
Length of Visible Light 14h 28m
Length of Day
13h 31m
Waning Gibbous, 83% of the Moon is Illuminated
Apr 21
Waning Gibbous
Apr 24
Last Quarter
May 3
New
May 10
First Quarter
May 17
Full

Hourly Weather History & Observations

Time (EDT) Temp. Windchill Dew Point Humidity Pressure Visibility Wind Dir Wind Speed Gust Speed Precip Events Conditions
12:53 AM 39.9 °F 35.1 °F 35.1 °F 83% 30.27 in 10.0 mi WNW 6.9 mph - N/A   Partly Cloudy
1:53 AM 39.0 °F 32.8 °F 32.0 °F 76% 30.27 in 10.0 mi NW 9.2 mph - N/A   Clear
2:53 AM 37.0 °F 31.6 °F 32.0 °F 82% 30.27 in 10.0 mi WNW 6.9 mph - N/A   Clear
3:53 AM 36.0 °F 30.3 °F 32.0 °F 86% 30.30 in 10.0 mi NW 6.9 mph - N/A   Clear
4:53 AM 34.0 °F 31.0 °F 30.9 °F 89% 30.34 in 10.0 mi WSW 3.5 mph - N/A   Clear
6:53 AM 34.0 °F - 30.9 °F 89% 30.35 in 6.0 mi Calm Calm - N/A   Clear
7:53 AM 34.0 °F 31.0 °F 30.9 °F 89% 30.39 in 6.0 mi SSW 3.5 mph - N/A   Clear
8:53 AM 39.0 °F 35.7 °F 34.0 °F 82% 30.40 in 8.0 mi North 4.6 mph - N/A   Clear
10:53 AM 46.9 °F - 30.9 °F 54% 30.40 in 10.0 mi NE 6.9 mph - N/A   Clear
11:53 AM 48.0 °F - 33.1 °F 56% 30.39 in 10.0 mi ENE 9.2 mph - N/A   Clear
12:53 PM 51.1 °F - 34.0 °F 52% 30.38 in 10.0 mi NE 11.5 mph 16.1 mph N/A   Clear
1:53 PM 51.1 °F - 35.1 °F 54% 30.35 in 10.0 mi East 6.9 mph - N/A   Clear
2:53 PM 53.1 °F - 37.9 °F 57% 30.33 in 10.0 mi Variable 5.8 mph - N/A   Clear
3:53 PM 54.0 °F - 34.0 °F 47% 30.31 in 10.0 mi ENE 9.2 mph - N/A   Clear
4:53 PM 53.1 °F - 35.1 °F 50% 30.27 in 10.0 mi ENE 13.8 mph 20.7 mph N/A   Clear
5:53 PM 53.1 °F - 37.0 °F 55% 30.25 in 10.0 mi ESE 16.1 mph 25.3 mph N/A   Scattered Clouds
6:53 PM 52.0 °F - 36.0 °F 54% 30.23 in 10.0 mi ESE 11.5 mph 23.0 mph N/A   Clear
7:53 PM 51.1 °F - 35.1 °F 54% 30.22 in 10.0 mi ESE 12.7 mph - N/A   Clear
8:53 PM 48.0 °F - 36.0 °F 63% 30.23 in 10.0 mi ESE 8.1 mph - N/A   Clear
9:53 PM 46.9 °F - 37.0 °F 68% 30.24 in 10.0 mi East 9.2 mph - N/A   Scattered Clouds
11:53 PM 46.9 °F - 37.0 °F 68% 30.21 in 10.0 mi East 6.9 mph - N/A   Overcast